Location: Godzisko
(49.9648°N, 19.4576°E)
Time: 06:24:14
(UTC+00:00)

Meteor 1-19 Rocket - Pass Details

Date: 20 April 2021
Orbit: 807 x 928 km, 81.2° (Epoch: 05 May)

Event Time Altitude Azimuth Distance (km) Brightness Sun altitude
Exits shadow 00:53:19 48° 208° (SSW) 1,100 4.3 -22.0°
Maximum altitude 00:54:55 77° 283° (WNW) 870 4.1 -21.9°
Drops below altitude 10° 01:00:27 10° 10° (N) 2,440 7.5 -21.4°
Sets 01:02:50 0° 12° (NNE) 3,364 8.4 -21.1°
